Location: B?jaj?g
(11.7167°N, 92.6667°E)
Time: 12:41:45
(UTC+00:00)

Meteor 1-11 Rocket - Pass Details

Date: 18 September 2020
Orbit: 830 x 916 km, 81.2° (Epoch: 22 October)

Event Time Altitude Azimuth Distance (km) Brightness Sun altitude
Rises 22:27:29 0° 359° (N) 3,444 6.9 -18.2°
Reaches altitude 10° 22:29:58 10° 3° (N) 2,493 6.2 -17.6°
Maximum altitude 22:35:34 65° 84° (E) 928 4.1 -16.2°
Drops below altitude 10° 22:41:03 10° 166° (SSE) 2,446 6.2 -14.9°
Sets 22:43:27 0° 169° (SSE) 3,373 6.9 -14.3°
